Location: Augustenthal
(51.7167°N, 10.2833°E)
Time: 09:02:24
(UTC+00:00)

Meteor 1-21 - Pass Details

Date: 18 May 2021
Orbit: 844 x 888 km, 81.2° (Epoch: 15 June)

Event Time Altitude Azimuth Distance (km) Brightness Sun altitude
Exits shadow 23:48:28 30° 176° (S) 1,525 5.0 -18.1°
Maximum altitude 23:51:24 72° 99° (E) 928 4.3 -18.1°
Drops below altitude 10° 23:57:09 10° 16° (NNE) 2,539 8.0 -17.9°
Sets 23:59:36 0° 15° (NNE) 3,475 9.1 -17.9°
